Home   Weather   Middletown Township   Past weeks
Flag for USA

Past Weather in Middletown Township, New Jersey, USA — Yesterday and Last 2 Weeks

Now
47 °F

Overcast.


Feels Like: 42 °F
Forecast: 45 / 34 °F
Wind: 12 mph from Northwest

Location: Belmar-Farmdale

Current Time: Feb 19, 2020 at 4:58:01 am

Latest Report: Feb 19, 2020 at 3:56 am


Visibility: 10 mi

Pressure: 30.07 "Hg

Humidity: 77%

Dew Point: 40 °F

Location of Middletown TownshipLocation

Past Weather in Middletown Township — Graph

°F

Middletown Township Temperature Yesterday

Maximum temperature yesterday: 52 °F (at 4:07 pm)
Minimum temperature yesterday: 37 °F (at 12:56 am)
Average temperature yesterday: 45 °F

High & Low Weather Summary for the Past Weeks

 TemperatureHumidityPressure
High62 °F (Feb 4, 3:56 pm)100% (Feb 4, 3:56 am)30.67 "Hg (Feb 4, 3:56 am)
Low13 °F (Feb 15, 5:56 am)33% (Feb 17, 1:56 pm)28.87 "Hg (Feb 7, 11:03 am)
Average41 °F71%30.01 "Hg
* Reported Feb 4 3:56 am — Feb 19 3:56 am, Middletown Township. Weather by CustomWeather, © 2020

Note: Actual official high and low records may vary slightly from our data, if they occured in-between our weather recording intervals... More about our weather records

Middletown Township Weather History for the Previous 24 Hours

Scroll right to see more
 ConditionsComfort  
Time TempWeatherWind HumidityBarometerVisibility
3:56 am
Wed, Feb 19
47 °FOvercast.12 mph77%30.07 "Hg10 mi
2:56 am47 °FOvercast.13 mph80%30.06 "Hg10 mi
1:56 am47 °FOvercast.9 mph93%30.03 "Hg10 mi
12:56 am46 °FOvercast.6 mph100%30.03 "Hg7 mi
11:56 pm
Tue, Feb 18
45 °FOvercast.5 mphN/A30.02 "Hg5 mi
10:56 pm45 °FOvercast.5 mphN/A30.01 "Hg5 mi
10:12 pm45 °FMostly cloudy.3 mphN/A30.01 "Hg4 mi
9:56 pm45 °FMostly cloudy.3 mphN/A30.02 "Hg4 mi
9:14 pm45 °FFog.8 mphN/A30.01 "Hg3 mi
8:56 pm45 °FFog.8 mphN/A30.01 "Hg2 mi
8:31 pm45 °FFog.7 mphN/A30.01 "Hg1 mi
7:56 pm45 °FLight rain. Low clouds.3 mphN/A30.00 "Hg1 mi
6:56 pm46 °FFog.No windN/A30.01 "Hg1 mi
6:33 pm46 °FFog.No windN/A30.02 "Hg1 mi
6:14 pm46 °FFog.No windN/A30.01 "Hg1 mi
5:41 pm48 °FFog.6 mph100%30.00 "Hg2 mi
5:21 pm48 °FFog.6 mph100%30.00 "Hg4 mi
5:05 pm50 °FFog.3 mph100%30.01 "Hg6 mi
4:56 pm51 °FSunny.5 mph100%30.01 "Hg7 mi
4:07 pm52 °FScattered clouds.6 mph100%30.02 "Hg9 mi
2:56 pm50 °FOvercast.No wind89%30.06 "Hg9 mi
1:56 pm50 °FOvercast.6 mph86%30.10 "Hg10 mi
1:27 pm50 °FOvercast.3 mph82%30.13 "Hg10 mi
12:56 pm50 °FOvercast.3 mph83%30.15 "Hg10 mi
11:56 am49 °FOvercast.8 mph86%30.20 "Hg10 mi
10:56 am46 °FOvercast.9 mph93%30.26 "Hg10 mi
9:56 am45 °FOvercast.8 mph86%30.28 "Hg10 mi
8:56 am44 °FOvercast.9 mph82%30.29 "Hg10 mi
7:56 am43 °FOvercast.13 mph82%30.31 "Hg10 mi
6:56 am42 °FScattered clouds.10 mph82%30.32 "Hg10 mi
5:56 am42 °FPassing clouds.9 mph79%30.32 "Hg10 mi
4:56 am41 °FOvercast.13 mph82%30.31 "Hg10 mi
Weather by CustomWeather, © 2020

See weather overview

Advertising